Terug naar catalogus

DELTA 1 DEB

ActiefPO
NORAD 37647·DEBRIS·🇺🇸 United States

Gelanceerd Mar 5, 1978 vanaf Vandenberg Space Force Base

Loading…

Volgende Passages (komende 24 uur)

TLE

VersSource: Space-Track

Epoch: Sep 14, 2026, 08:35 UTC

1 37647U 78026JJ  26257.35807702  .00000395  00000-0  39818-3 0  9993
2 37647  98.7657 299.4329 0232804 108.4194 254.2416 13.71078301648750

Volg DELTA 1 DEB in realtime met AllMySat

Download on the App Store